カタログに戻る

COSMOS 2491 DEB

運用中PO
NORAD 57554·DEBRIS·🇷🇺 Russia

打ち上げ Dec 25, 2013 から Plesetsk Cosmodrome

Loading…

次のパス (今後24時間)

TLE

経年Source: Space-Track

元期: Sep 6, 2026, 07:29 UTC

1 57554U 13076AR  26249.31224050  .00000604  00000-0  38950-2 0  9990
2 57554  82.4812 106.2697 0025311  29.3905 330.8596 12.50203180151692

AllMySatでCOSMOS 2491 DEBをリアルタイム追跡

Download on the App Store